Location: Cheching
(60.0667°N, 164.2167°W)
Time: 19:33:15
(UTC+00:00)

DX 1 - Pass Details

Date: 28 January 2021
Orbit: 618 x 631 km, 98.5° (Epoch: 26 February)

Event Time Altitude Azimuth Distance (km) Brightness Sun altitude
Rises 17:10:51 0° 184° (S) 2,907 ? -15.4°
Reaches altitude 10° 17:13:10 10° 192° (SSW) 2,002 ? -15.1°
Maximum altitude 17:17:14 38° 262° (W) 955 ? -14.6°
Enters shadow 17:21:14 11° 331° (NNW) 1,973 ? -14.1°
